Simultaneous Nadir Overpasses (SNOs) Predictions

Prediction of SNOs between GOES-17 and METOP-B Satellite Orbit:

Table of predicted SNOs for the next 14.0 days since TLE Epoch: 10/17/2025
Index Date Time (GOES-17) GOES-17 Lat,Lon METOP-B Lat,Lon Distance(km) Time Diff (sec)
1 10/18/2025 02:40:00 -0.27, -89.47 0.69, -85.30 475.51 80
2 10/19/2025 15:01:42 0.28, -89.54 0.35, -89.90 40.94 80
3 10/22/2025 03:00:19 -0.29, -89.49 -0.31, -89.57 9.16 80
4 10/24/2025 14:56:09 0.30, -89.57 0.23, -89.21 41.21 80
5 10/26/2025 03:17:58 -0.31, -89.51 -1.29, -93.84 493.10 80
6 10/27/2025 02:54:46 -0.31, -89.52 -0.16, -88.88 73.53 80
7 10/28/2025 15:13:48 0.32, -89.60 1.19, -93.48 442.57 80
8 10/29/2025 14:53:16 0.32, -89.61 0.06, -88.52 124.41 80
9 10/31/2025 03:15:04 -0.33, -89.55 -1.15, -93.14 409.18 80
